Location: Derby
(52.9213°N, 1.4761°W)
Time: 23:21:31
(UTC+01:00)

Envisat - Visible Passes

Search period start: 15 April 2024 00:00
Search period end: 25 April 2024 00:00
Orbit: 762 x 764 km, 98.3° (Epoch: 15 April)

Date Brightness Start Highest point End Pass type
(mag) Time Alt. Az. Time Alt. Az. Time Alt. Az.
15 Apr 5.5 03:07:46 10° NE 03:10:44 15° E 03:13:41 10° ESE visible
15 Apr 3.0 04:45:21 10° NNE 04:50:28 87° ESE 04:55:34 10° SSW visible
16 Apr 4.0 04:08:08 10° NNE 04:13:02 45° E 04:17:53 10° S visible
17 Apr 5.0 03:31:19 10° NE 03:35:23 24° E 03:39:26 10° SE visible
17 Apr 3.1 05:09:45 10° N 05:14:47 62° WNW 05:19:47 10° SSW visible
18 Apr 5.6 02:55:35 10° ENE 02:57:32 12° E 02:59:28 10° ESE visible
18 Apr 3.3 04:32:22 10° NNE 04:37:28 70° ESE 04:42:32 10° S visible
19 Apr 4.4 03:55:16 10° NNE 03:59:58 36° E 04:04:37 10° SSE visible
20 Apr 5.3 03:18:40 10° NE 03:22:15 19° E 03:25:48 10° SE visible
20 Apr 3.0 04:56:43 10° NNE 05:01:49 77° WNW 05:06:53 10° SSW visible
21 Apr 3.6 04:19:25 10° NNE 04:24:26 56° E 04:29:25 10° S visible
22 Apr 4.7 03:42:26 10° NNE 03:46:51 29° E 03:51:14 10° SSE visible
23 Apr 5.5 03:06:09 10° NE 03:09:04 15° E 03:11:58 10° ESE visible
23 Apr 3.1 04:43:42 10° NNE 04:48:49 86° ESE 04:53:55 10° SSW visible
24 Apr 4.0 04:06:30 10° NNE 04:11:23 44° E 04:16:13 10° S visible
